Location: Obersdorf
(47.4079°N, 10.2781°E)
Time: 11:38:17
(UTC+01:00)

XW-2C - Pass Details

Date: 07 December 2021
Orbit: 503 x 523 km, 97.5° (Epoch: 15 January)

Event Time Altitude Azimuth Distance (km) Brightness Sun altitude
Rises 05:33:06 0° 25° (NNE) 2,669 ? -22.6°
Reaches altitude 10° 05:35:35 10° 41° (NE) 1,775 ? -22.2°
Maximum altitude 05:38:37 22° 93° (E) 1,183 ? -21.7°
Drops below altitude 10° 05:41:37 10° 146° (SE) 1,760 ? -21.2°
Sets 05:44:04 0° 162° (SSE) 2,640 ? -20.8°
